Flag for Norway Weather past 2 weeks in Larvik, Norway

Now
43 °F

Drizzle. Fog.


Feels Like: 39 °F
Forecast: 46 / 55 °F
Wind: 7 mph from Northeast

Location: Torp

Current Time: Oct 22, 2014 at 5:42:00 PM

Latest Report: Oct 22, 2014 at 4:50 PM


Visibility: 3 mi

Pressure: 29.98 "Hg

Humidity: 100%

Dew point: 43 °F

Location of LarvikLocation

Historic Weather in Larvik — Graph

°F

Larvik temperature yesterday

Maximum temperature yesterday: 52 °F (at 1:50 PM)
Minimum temperature yesterday: 43 °F (at 3:50 AM)
Average temperature yesterday: 48 °F

Past Weeks' High & Low Weather Summary

 TemperatureHumidityPressure
High59 °F (Oct 20, 1:20 PM)100% (Oct 7, 10:50 PM)30.09 "Hg (Oct 7, 10:50 PM)
Low32 °F (Oct 16, 8:50 PM)59% (Oct 8, 4:20 PM)29.30 "Hg (Oct 20, 3:50 AM)
Average48 °F92%29.73 "Hg
* Reported Oct 7 4:20 PM — Oct 22 4:20 PM, Larvik, Weather by CustomWeather, © 2014

Note: Actual official high and low records may vary slightly from our data, if they occured in-between our weather recording intervals... More about our weather records

Advertising

Larvik weather history for previous 24 hours

 ConditionsComfort  
Time TempWeatherWind HumidityBarometerVisibility
4:20 PM
Oct 22
43 °FDrizzle. Fog.7 mph100%29.95 "Hg2 mi
3:50 PM45 °FDrizzle. Fog.7 mph93%29.95 "Hg2 mi
3:20 PM45 °FDrizzle. Fog.7 mph93%29.95 "Hg2 mi
2:50 PM45 °FDrizzle. Fog.5 mph93%29.92 "Hg2 mi
2:20 PM45 °FLight rain. Fog.5 mph93%29.92 "Hg3 mi
1:50 PM45 °FDrizzle. Overcast.5 mph93%29.92 "Hg3 mi
1:20 PM46 °FDrizzle. Overcast.7 mph87%29.89 "Hg4 mi
12:50 PM45 °FDrizzle. Partly sunny.8 mph93%29.89 "Hg4 mi
12:20 PM46 °FLight rain. Partly sunny.9 mph87%29.89 "HgN/A
11:50 AM46 °FRain. Partly sunny.8 mph87%29.86 "Hg5 mi
11:20 AM46 °FLight rain. Fog.10 mph87%29.86 "Hg3 mi
10:50 AM46 °FDrizzle. Partly sunny.7 mph93%29.83 "Hg3 mi
10:20 AM46 °FRain. Broken clouds.5 mph93%29.80 "Hg4 mi
9:50 AM46 °FRain. Broken clouds.8 mph93%29.80 "Hg5 mi
9:20 AM46 °FLight rain. Broken clouds.8 mph93%29.77 "HgN/A
8:50 AM46 °FLight rain. Passing clouds.8 mph93%29.74 "HgN/A
8:20 AM46 °FPartly cloudy.10 mph93%29.71 "Hg6 mi
7:50 AM48 °FPartly cloudy.8 mph94%29.71 "Hg5 mi
7:20 AM48 °FDrizzle. Mostly cloudy.8 mph94%29.68 "Hg5 mi
6:50 AM48 °FLight rain. Low clouds.8 mph94%29.65 "Hg5 mi
6:20 AM48 °FDrizzle. Mostly cloudy.8 mph94%29.65 "HgN/A
5:50 AM48 °FLight rain. Low clouds.8 mph94%29.62 "HgN/A
5:20 AM48 °FDrizzle. Mostly cloudy.8 mph94%29.62 "HgN/A
4:50 AM48 °FDrizzle. Low clouds.8 mph94%29.59 "HgN/A
4:20 AM48 °FLight rain. Mostly cloudy.9 mph94%29.59 "HgN/A
3:50 AM50 °FDrizzle. Overcast.9 mph88%29.59 "HgN/A
3:20 AM50 °FDrizzle. Overcast.8 mph88%29.56 "HgN/A
2:50 AM50 °FDrizzle. Low clouds.8 mph94%29.56 "HgN/A
2:20 AM50 °FLight rain. Low clouds.8 mph94%29.53 "HgN/A
1:50 AM50 °FDrizzle. Mostly cloudy.6 mph94%29.53 "Hg4 mi
1:20 AM48 °FDrizzle. Overcast.8 mph100%29.50 "Hg4 mi
12:50 AM48 °FLight rain. Mostly cloudy.7 mph100%29.50 "Hg4 mi
12:20 AM48 °FLight rain. Mostly cloudy.8 mph100%29.47 "Hg4 mi
11:50 PM
Oct 21
48 °FLight rain. Mostly cloudy.7 mph100%29.47 "Hg3 mi
11:20 PM48 °FDrizzle. Mostly cloudy.9 mph100%29.47 "Hg4 mi
10:50 PM48 °FLight rain. Overcast.8 mph100%29.45 "Hg4 mi
10:20 PM48 °FDrizzle. Overcast.9 mph100%29.45 "Hg3 mi
9:50 PM48 °FRain. Partly cloudy.9 mph100%29.45 "Hg4 mi
9:20 PM48 °FRain. Passing clouds.10 mph100%29.45 "Hg4 mi
8:50 PM48 °FLight rain. Fog.8 mph100%29.45 "Hg2 mi
8:20 PM48 °FLight rain. Fog.10 mph100%29.42 "Hg3 mi
7:50 PM50 °FLight rain. Passing clouds.8 mph94%29.42 "Hg3 mi
7:20 PM50 °FRain. Passing clouds.8 mph94%29.42 "Hg3 mi
6:50 PM50 °FDrizzle. Partly sunny.9 mph94%29.42 "Hg4 mi
6:20 PM50 °FDrizzle. Partly sunny.8 mph94%29.42 "Hg5 mi
5:50 PM50 °FPartly sunny.9 mph94%29.42 "Hg5 mi
5:20 PM50 °FLight rain. Partly sunny.9 mph94%29.42 "Hg4 mi
Weather by CustomWeather, © 2014

See weather overviewHow to use our weather pages